Weather Service Report


512 
ASUS41 KPHI 200912
RWRPHI

REGIONAL WEATHER ROUNDUP
NATIONAL WEATHER SERVICE MOUNT HOLLY NJ
500 AM EDT FRI OCT 20 2017

NOTE:  "FAIR" INDICATES FEW OR NO CLOUDS BELOW 12,000 FEET WITH NO
SIGNIFICANT WEATHER AND/OR OBSTRUCTIONS TO VISIBILITY.

 * = STATION DOES NOT REPORT PRECIPITATION (E.G. RAIN, SNOW, ETC.) 
        OR FOG.

NJZ015>026-201000-
SOUTHERN NEW JERSEY
  
CITY           SKY/WX    TMP DP  RH WIND       PRES   REMARKS
POMONA         FAIR      53  52  96 W3        30.12F                  
WILDWOOD*      FAIR      51  50  96 CALM      30.15S                  
MILLVILLE      FAIR      47  46  97 CALM      30.14S                  
WRIGHTSTOWN    FAIR      55  49  80 W5        30.09R                  
MOUNT HOLLY    FAIR      56  51  84 W5        30.12R                  
TRENTON        FAIR      55  47  74 W5        30.11S                  

$$
NJZ001>014-201000-
NORTHERN NEW JERSEY
  
CITY           SKY/WX    TMP DP  RH WIND       PRES   REMARKS
SUSSEX         FAIR      44  43  96 W3        30.11R                  
ANDOVER*         N/A     45  44  97 CALM      30.12R                  
MORRISTOWN     FAIR      43  43 100 CALM      30.10S                  
NEWARK         FAIR      56  47  71 W7        30.10R                  
TETERBORO      FAIR      50  45  83 CALM      30.08R                  
CALDWELL       FAIR      50  49  96 CALM      30.11R                  
SOMERVILLE     FAIR      43  42  97 CALM      30.11R                  
ALLAIRE*       FAIR      51  48  89 W5        30.11S                  
TOMS RIVER*      N/A     49  48  97 CALM      30.12R                  

$$
PAZ043-044-047-054-055-060>062-066>071-201000-
EASTERN PENNSYLVANIA
  
CITY           SKY/WX    TMP DP  RH WIND       PRES   REMARKS
PHILADELPHIA   FAIR      55  48  77 W5        30.14R                  
NORTH PHILA    FAIR      53  47  79 W6        30.14S                  
BLUE BELL*     FAIR      46  46 100 CALM      30.15R                  
DOYLESTOWN     FAIR      51  47  86 S3        30.12R                  
QUAKERTOWN*    FAIR      54  46  76 NW3       30.14R                  
PERKASIE*      CLOUDY    50  48  93 CALM      30.14R                  
POTTSTOWN      FAIR      51  47  86 CALM      30.15R                  
LANCASTER      FAIR      49  47  93 W6        30.16R                  
COATESVILLE    FAIR      54  46  76 W8        30.16R                  
READING        FAIR      50  48  93 CALM      30.14R                  
ALLENTOWN      FAIR      50  45  83 SW5       30.13R                  
MOUNT POCONO   FAIR      52  45  77 NW14G20   30.11S                  
HAZLETON       FAIR      52  43  71 W5        30.17S                  
LEHIGHTON      FAIR      37  37 100 CALM      30.15R                  
WILKES BARRE   FAIR      53  45  74 W5        30.14R                  

$$
DEZALL-MDZ008-012-015-019-020-201000-
DELAWARE AND EASTERN MARYLAND
  
CITY           SKY/WX    TMP DP  RH WIND       PRES   REMARKS
WILMINGTON     FAIR      53  50  89 NW3       30.15R                  
DOVER          CLEAR     54  50  87 W3        30.13S                  
GEORGETOWN     FAIR      50  48  93 CALM      30.16S                  
EASTON         FAIR      52  50  93 CALM      30.19S                  
ABERDEEN       FAIR      47  47  99 CALM      30.16R                  
PATUXENT       FAIR      50  47  89 NW7       30.16R                  
OCEAN CITY     FAIR      56  55  97 W6        30.16R FOG              
WALLOPS ISLAND FAIR      55  55 100 W6        30.16S                  
CAMBRIDGE      CLEAR     46  46 100 CALM      30.16S                  
SALISBURY      FAIR      47  47 100 CALM      30.16R                  

$$
PAZ001-021-NYZ056-072-MDZ011-DCZ001-201000-
OTHER NEARBY LOCATIONS
  
CITY           SKY/WX    TMP DP  RH WIND       PRES   REMARKS
HARRISBURG     FAIR      49  48  97 CALM      30.15S                  
STATE COLLEGE  FAIR      53  46  75 W6        30.19R                  
WILLIAMSPORT   FAIR      46  44  93 NW3       30.16R                  
BINGHAMTON     FAIR      49  38  65 W3        30.14R                  
NEW YORK CITY  FAIR      59  46  62 CALM      30.12R                  
BALTIMORE      FAIR      51  47  86 W7        30.16R                  
WASHINGTON DC  FAIR      56  54  93 S5        30.18R                  

$$
  

Return to Home page


Western Regional Climate Center, wrcc@dri.edu